Location: Marivaux
(49.5193°N, 3.1229°E)
Time: 14:48:25
(UTC+00:00)

Daily predictions for brighter satellites

Satellite Brightness Start Highest point End
(mag) Time Altitude Azimuth Time Altitude Azimuth Time Altitude Azimuth
Cosmos 1980 Rocket 3.0 19:45:31 10° NNW 19:50:56 41° NE 19:56:16 10° ESE
SL-08 R/B 3.9 19:47:16 10° NNE 19:51:47 37° E 19:56:13 10° SSE
Okean 1 Rocket 3.5 19:49:29 10° SSE 19:53:34 41° E 19:57:44 10° NNE
SL-24 R/B 4.3 19:49:08 10° NNE 19:53:48 83° WNW 19:58:08 10° SSW
Meteor 2-3 Rocket 3.8 19:51:11 10° N 19:56:48 68° ENE 20:02:24 10° SSE
Cosmos 2084 3.5 19:52:57 10° SW 19:57:06 80° NW 20:01:15 10° NE
CZ-4 R/B 1.9 19:56:09 10° S 19:59:41 52° W 20:03:15 10° NNW
Cosmos 1850 Rocket 4.3 19:56:00 10° NNW 20:01:04 52° ENE 20:06:06 10° SE
CZ-4B R/B 4.4 19:59:01 10° ESE 20:01:12 16° ENE 20:03:24 10° NNE
Cosmos 1782 4.3 19:59:24 10° SE 20:01:36 16° E 20:03:48 10° NE
ASTEX 1 3.7 20:01:03 10° S 20:05:58 70° W 20:10:57 10° N
SPOT 5 4.3 20:02:12 10° SSW 20:06:05 33° W 20:10:02 10° NNW
Cosmos 2056 Rocket 3.8 20:03:57 10° SSW 20:09:21 76° WNW 20:14:45 10° NNE
CZ-4B R/B 3.4 20:03:59 10° SSE 20:09:40 86° WSW 20:15:21 10° NNW
Cosmos 1833 Rocket 2.7 20:04:44 10° SSW 20:10:20 85° ESE 20:16:00 10° NNE
Cosmos 1110 Rocket 4.2 20:05:43 10° S 20:10:48 51° ESE 20:15:57 10° NNE
Cosmos 1802 Rocket 4.3 20:05:27 10° SSE 20:11:20 47° E 20:17:11 10° NNE
Cosmos 1624 Rocket 4.3 20:07:08 10° SSW 20:12:18 74° WNW 20:17:30 10° NNE
Terra 2.0 20:09:11 10° S 20:13:52 73° WSW 20:18:34 10° NNW
Gbstr 26 Del rocket 3.2 20:09:16 10° WNW 20:14:36 88° NNE 20:18:53 10° ESE
Cosmos 2360 Rocket 4.4 20:12:58 10° N 20:15:58 14° NNE 20:18:58 10° ENE
Sich 1 Rocket 3.6 20:12:06 10° S 20:16:22 61° E 20:20:41 10° NNE
SJ 16-02 3.9 20:17:20 10° WNW 20:20:00 16° W 20:22:40 10° SW
YAOGAN 11 4.5 20:17:14 10° NNE 20:21:28 45° E 20:25:44 10° S
CZ-2C R/B 4.2 20:23:39 11° E 20:24:58 14° ENE 20:26:30 10° NNE
USA 229 DEB 4.4 20:18:33 10° NW 20:25:56 62° SW 20:34:03 10° SSE
USA 229 4.4 20:18:35 10° NW 20:26:00 62° SW 20:34:07 10° SSE
Cosmos 1743 2.5 20:23:35 10° N 20:26:30 44° ENE 20:28:34 17° SE
SKYMED 3 4.4 20:26:22 10° NNE 20:30:19 79° WNW 20:34:15 10° SSW
Meteor 1-27 4.5 20:25:22 10° SSE 20:30:49 50° E 20:36:14 10° NNE
Cosmos 44 Rocket 3.6 20:26:07 10° SSW 20:30:56 47° ESE 20:35:54 10° NE
ISS -2.7 20:29:07 10° SSW 20:31:51 24° SE 20:34:36 10° E
Cosmos 1459 Rocket 4.0 20:26:02 10° S 20:32:18 85° E 20:38:30 10° N
Cosmos 2100 Rocket 4.1 20:29:38 10° S 20:35:51 83° W 20:42:12 10° N
Ariane Rocket 3.6 20:32:21 15° SE 20:36:12 41° ENE 20:40:56 10° N
ADEOS 4.2 20:33:57 10° S 20:39:02 54° W 20:44:10 10° NNW
ATLAS 2AS CENTAUR R/B 3.3 20:32:47 10° WSW 20:39:39 61° NW 20:46:25 10° NE
BREEZE-M DEB (TANK) 3.7 20:39:10 10° W 20:42:04 44° SSW 20:47:10 16° SE
Cosmos 2369 4.2 20:36:30 10° NNW 20:42:05 51° NE 20:46:24 17° SE
Spot 2 Rocket 3.6 20:37:05 10° S 20:42:05 76° WSW 20:47:09 10° NNW
SL-4 R/B 3.2 20:39:06 10° W 20:42:25 28° SW 20:44:44 16° SSE
Cosmos 2322 Rocket 4.1 20:39:58 10° N 20:44:01 20° NE 20:48:04 10° E
MOS 1-B 4.5 20:39:55 10° SSE 20:45:42 79° WSW 20:51:34 10° NNW
Cosmos 2082 Rocket 2.7 20:41:18 10° S 20:46:31 38° ESE 20:51:44 10° NE
Okean 2 Rocket 3.9 20:42:17 10° SSW 20:46:41 54° WNW 20:51:06 10° N
USA 305 3.0 20:44:15 10° WNW 20:48:19 58° NNE 20:51:08 16° E
Cosmos 2151 4.3 20:47:31 10° NNE 20:50:57 25° ENE 20:52:53 18° ESE
Cosmos 1607 4.1 20:51:32 10° SSW 20:57:23 49° ESE 21:03:22 10° NE
Cosmos 2233 Rocket 4.0 20:51:19 10° S 20:57:25 65° E 21:03:32 10° NNE
Cosmos 1626 Rocket 4.2 20:53:43 10° N 20:57:49 40° ENE 21:00:05 23° SE
Cosmos 2228 2.9 20:55:36 17° S 20:58:40 61° E 21:02:45 10° NNE
SL-08 R/B 4.5 20:53:33 10° S 20:59:48 77° E 21:06:11 10° NNE
USA 186 2.6 20:58:27 16° SSW 21:00:09 36° W 21:02:42 10° NNW
Timation 1 Rocket 4.5 20:54:49 10° SSW 21:00:49 82° WNW 21:06:53 10° NNE
Okean O Rocket 2.3 20:57:28 11° S 21:01:25 49° W 21:05:37 10° NNW
Tsikada Rocket 3.9 20:57:52 10° N 21:04:07 82° E 21:08:51 18° SSE
Cosmos 1697 Rocket 4.1 21:01:43 10° NW 21:06:37 31° WSW 21:11:28 10° SSW
CZ-4C R/B 1.7 21:03:56 10° SW 21:08:09 87° NW 21:13:38 10° NE
Cosmos 1725 Rocket 4.2 21:02:14 10° SSW 21:08:31 77° W 21:14:48 10° N
Cosmos 1452 Rocket 3.5 21:03:53 10° SSW 21:09:06 83° WNW 21:14:23 10° NNE
COSMOS 2406 4.1 21:07:29 22° SE 21:09:43 29° ESE 21:14:34 10° NE
SL-16 R/B 3.1 21:05:56 10° NNW 21:11:16 39° NE 21:14:58 18° ESE
Okean-O 3.8 21:10:27 11° SSW 21:14:22 38° W 21:18:29 10° NNW
ATLAS 3B R/B 3.7 21:08:00 10° NW 21:15:13 44° WSW 21:20:47 16° S
CZ-4B R/B 3.4 21:19:07 23° S 21:22:03 78° WSW 21:26:51 10° NNW
Cosmos 2333 Rocket 3.0 21:18:47 10° NNW 21:24:12 43° NE 21:27:39 21° ESE
Cosmos 1455 Rocket 4.0 21:20:50 10° SSW 21:25:06 47° WNW 21:29:22 10° N
Cosmos 1302 Rocket 3.9 21:21:37 10° SSW 21:26:48 87° ESE 21:32:01 10° NNE
Cosmos 2098 Rocket 4.4 21:25:32 25° ESE 21:27:03 30° E 21:31:08 10° NNE
Cosmos 2016 Rocket 4.5 21:21:27 10° SSW 21:27:40 62° WNW 21:33:50 10° N
CZ-4B R/B 3.5 21:33:11 24° SSW 21:34:40 38° W 21:37:52 10° NNW
Cosmos 1980 Rocket 3.1 21:29:37 10° NW 21:34:55 41° WSW 21:38:33 19° SSW
Cosmos 2061 Rocket 4.0 21:29:50 13° SSW 21:35:22 82° W 21:41:42 10° N
Cosmos 1782 3.8 21:32:57 12° SW 21:35:53 38° WNW 21:39:14 10° N
Cosmos 1544 Rocket 3.5 21:35:33 33° S 21:37:22 68° E 21:41:42 10° NNE
SPOT 3 Rocket 4.1 21:34:29 19° S 21:37:57 51° W 21:42:58 10° NNW
Cosmos 724 4.4 21:32:01 10° SW 21:38:04 81° NW 21:44:01 10° NE
NOSS 3-3 (A) 3.7 21:34:26 13° SSW 21:38:56 59° SE 21:44:59 10° NE
Cosmos 1933 3.2 21:44:19 48° SE 21:45:04 59° E 21:48:49 10° NNE
Cosmos 2084 Rocket 3.5 21:45:01 10° NW 21:49:10 63° SW 21:50:19 44° S
Cosmos 1758 Rocket 3.7 21:47:36 10° NNW 21:51:57 67° W 21:53:42 35° SSW
Helios 1B rocket 3.1 21:51:51 30° E 21:52:19 31° ENE 21:55:28 10° N
CZ-2C R/B 3.3 21:55:17 29° WSW 21:55:31 30° W 21:58:02 10° NW
Cosmos 1464 Rocket 4.2 21:53:23 32° SSE 21:56:02 54° E 22:02:00 10° NNE
Cosmos 1513 Rocket 4.4 21:56:21 28° S 21:59:53 81° E 22:06:05 10° N
Gbstr 26 Del rocket 4.0 21:56:24 10° W 22:00:30 29° SW 22:00:52 29° SSW
Cosmos 2360 Rocket 2.8 21:55:56 10° NNW 22:01:27 47° NE 22:04:14 27° ESE
Meteor 2-10 4.4 21:59:00 10° N 22:04:42 64° ENE 22:06:57 37° SE
NOSS 3-3 (C) 3.6 22:02:52 18° SSW 22:06:49 75° SE 22:13:06 10° NE
ALOS 2 4.1 22:06:32 21° E 22:07:53 25° ENE 22:11:28 10° N
Cosmos 1825 Rocket 3.8 22:04:03 10° N 22:08:18 55° ENE 22:09:11 46° ESE
ISS -3.9 22:05:01 10° WSW 22:08:14 82° WSW 22:08:14 82° WSW
ARIANE 5 R/B 3.9 22:07:11 25° E 22:08:28 30° ENE 22:12:21 10° N
Geosat 3.9 22:04:14 10° NNE 22:09:16 89° WNW 22:12:24 24° SSW
Cosmos 1953 Rocket 4.5 22:05:53 10° N 22:09:55 35° ENE 22:10:47 32° E
Cosmos 1072 Rocket 4.4 22:08:18 33° S 22:11:14 75° E 22:17:33 10° NNE
USA 305 3.2 22:09:52 10° WNW 22:13:09 39° WSW 22:13:09 39° WSW
Ariane Rocket 4.3 22:12:25 19° SW 22:15:10 31° W 22:19:40 10° NNW
BREEZE-M R/B 4.4 22:06:36 10° W 22:15:44 82° N 22:21:24 10° E
Cosmos 1602 Rocket 3.7 22:13:21 10° NNW 22:17:37 62° W 22:18:42 45° SSW
DEBRIS 4.1 22:15:01 10° W 22:18:57 90° NNE 22:33:47 10° E
Cosmos 2219 Rocket 3.1 22:13:35 10° NNW 22:18:58 42° NE 22:21:48 25° ESE
NOSS 3-4 (A) 3.9 22:14:58 10° NW 22:21:33 74° NE 22:26:01 27° SE
NOSS 3-4 (C) 3.9 22:15:34 10° NW 22:22:11 73° NE 22:26:40 27° SE
Cosmos 1437 Rocket 3.1 22:21:47 43° WSW 22:22:28 50° WNW 22:25:58 10° N
Cosmos 540 Rocket 4.5 22:23:21 28° ESE 22:23:33 28° E 22:27:55 10° NE
Cosmos 1461 3.7 22:26:32 31° ENE 22:26:32 31° ENE 22:28:49 10° NE
Cosmos 2151 4.1 22:24:03 10° NNW 22:27:47 34° W 22:28:56 28° SW
Cosmos 1428 Rocket 4.4 22:22:35 10° N 22:28:53 89° E 22:31:20 40° S
Cosmos 2322 Rocket 2.2 22:23:21 10° NNW 22:29:02 76° ENE 22:31:03 41° SE
Cosmos 2034 Rocket 4.1 22:27:37 39° SSE 22:30:01 65° E 22:36:19 10° NNE
Cosmos 2082 Rocket 3.3 22:25:04 10° SW 22:30:31 44° NW 22:36:00 10° NNE
Cosmos 220 Rocket 3.6 22:32:36 73° SE 22:32:49 76° ESE 22:36:54 10° NNE
Cosmos 1707 4.3 22:38:21 18° NE 22:38:21 18° NE 22:39:24 10° NNE
Meteor 1-5 Rocket 4.4 22:32:23 10° NNW 22:38:00 68° W 22:40:03 40° SSW
Cosmos 1536 3.8 22:34:47 10° N 22:38:06 32° ENE 22:38:06 32° ENE
USA 234 3.3 22:33:03 10° ENE 22:39:30 57° SE 22:42:49 29° SSW
COSMOS 2428 4.4 22:37:27 10° NNW 22:42:14 27° NE 22:46:33 12° E
Okean 1-7 Rocket 4.0 22:41:59 10° NNW 22:46:19 52° W 22:47:08 45° SW
Cosmos 1763 Rocket 3.8 22:45:39 46° SE 22:46:19 49° ESE 22:51:25 10° NNE
Cosmos-2242 3.2 22:47:28 50° E 22:47:28 50° E 22:51:26 10° NNE
Cosmos 1503 Rocket 3.9 22:42:34 10° NNW 22:47:48 87° ENE 22:49:02 54° SSE
Helios 1A 3.4 22:44:08 10° N 22:47:58 53° WNW 22:48:44 44° WSW
Cosmos 1777 Rocket 4.0 22:42:49 10° NNW 22:48:04 74° WSW 22:49:16 53° S
Cosmos 2278 3.9 22:42:28 10° NW 22:48:06 61° WSW 22:49:38 45° SSW
CZ-2C R/B 4.4 22:46:01 10° NE 22:50:53 28° E 22:51:56 27° ESE
Cosmos 990 Rocket 4.1 22:46:00 10° NNW 22:51:09 68° ENE 22:52:30 47° SE
Cosmos 1805 4.3 22:48:22 10° NNW 22:51:00 28° W 22:51:00 28° W
Cosmos 1606 Rocket 3.9 22:52:45 47° SW 22:53:39 59° WNW 22:57:57 10° N
COSMOS 2406 3.8 22:49:26 18° SW 22:53:41 56° NW 22:59:21 10° NNE
ARGOS Delta rocket 4.3 22:50:30 10° NNE 22:55:21 49° E 22:56:07 45° SE
SL-16 R/B 2.8 22:50:05 10° NW 22:55:24 43° WSW 22:56:47 36° SW
USA 290 3.8 22:56:48 29° NE 22:56:48 29° NE 22:58:33 10° NNE
CZ-4C R/B 4.2 22:53:04 10° W 22:57:12 27° NNW 23:02:21 10° NE
Cosmos 1354 Rocket 4.0 22:52:45 10° NNW 22:58:02 76° ENE 22:59:19 51° SE
Cosmos 1634 Rocket 4.1 22:57:50 44° SSE 22:59:39 62° E 23:05:44 10° NNE
Cosmos 1486 Rocket 4.3 22:54:40 10° NNW 22:59:47 53° WSW 23:00:50 45° SW
Nadezhda 4 Rocket 4.5 22:54:38 10° NNW 23:00:30 50° W 23:02:51 33° SW
Cosmos 1766 3.6 22:58:48 10° N 23:01:17 49° N 23:01:17 49° N
Cosmos 2279 Rocket 4.5 23:01:48 38° SE 23:03:34 47° E 23:09:31 10° NNE
Cosmos 2098 Rocket 4.4 23:02:10 27° WSW 23:04:18 39° WNW 23:08:38 10° N
Cosmos 1470 3.9 23:01:44 10° N 23:04:12 27° ENE 23:04:12 27° ENE
SeaSat 1 3.6 23:03:53 23° E 23:06:15 38° NE 23:10:47 10° NNW
Cosmos 1726 Rocket 3.7 23:06:21 53° WSW 23:06:45 57° WNW 23:10:46 10° N
Cosmos 2333 Rocket 2.9 23:03:13 10° NW 23:08:28 39° WSW 23:09:39 35° SW
Cosmos 2221 3.8 23:09:57 27° E 23:09:57 27° E 23:13:20 10° NNE
Cosmos 1076 Rocket 4.0 23:07:12 10° NNW 23:11:19 46° W 23:11:38 45° WSW
Meteor 2-2 Rocket 4.2 23:10:20 52° S 23:11:45 76° E 23:17:29 10° NNE
Cosmos 1842 4.5 23:13:51 27° NE 23:13:51 27° NE 23:15:42 10° NNE
BREEZE-M DEB (TANK) 3.4 23:09:13 10° W 23:17:22 76° S 23:22:19 10° E
CZ-2C R/B 3.3 23:16:22 33° ESE 23:18:11 45° ENE 23:23:10 10° N
Cosmos 1833 4.1 23:17:41 53° S 23:18:58 74° ESE 23:24:37 10° NNE
Spot 4 4.0 23:23:21 54° SW 23:23:57 58° W 23:28:41 10° NNW
KORONAS-FOTON 4.2 23:25:14 50° NNE 23:25:14 50° NNE 23:27:51 10° NNE
Cosmos 2026 Rocket 4.3 23:18:57 10° NNW 23:25:10 57° W 23:27:17 40° SSW
Helios 1B rocket 4.0 23:25:48 20° W 23:25:48 20° W 23:28:05 10° NW
SAR-Lupe-2 4.2 23:26:37 48° NW 23:26:37 48° NW 23:29:10 10° NNW
Cosmos 1975 3.4 23:24:58 10° N 23:28:17 44° ENE 23:28:17 44° ENE
Aureole 1 Rocket 3.7 23:24:52 10° NNW 23:30:11 86° ENE 23:32:03 48° SSE
Cosmos 2266 Rocket 4.4 23:26:22 10° N 23:32:15 50° ENE 23:34:28 34° SE
Cosmos 2322 4.2 23:27:11 10° NNW 23:32:48 56° NE 23:35:16 32° ESE
Cosmos 1812 Rocket 4.4 23:34:01 37° E 23:34:09 37° E 23:38:13 10° NNE
Cosmos 2297 Rocket 4.0 23:33:58 16° ESE 23:34:42 17° E 23:38:08 10° ENE
Cosmos 44 3.7 23:30:49 10° NW 23:36:14 70° NE 23:38:07 40° ESE
Cosmos 1271 Rocket 3.3 23:38:06 44° NE 23:38:06 44° NE 23:40:40 10° NNE
Cosmos 372 Rocket 3.9 23:37:24 10° NNW 23:42:33 82° ENE 23:43:34 58° SE
RESURS DK-1 3.4 23:39:36 10° NNW 23:43:22 38° NE 23:44:13 34° E
Cosmos 1937 Rocket 4.1 23:38:47 10° NNW 23:43:48 49° ENE 23:45:41 33° ESE
ALOS 2 3.2 23:43:55 42° WSW 23:44:01 42° W 23:48:13 10° NNW
ARIANE 5 R/B 3.6 23:44:33 34° W 23:44:41 35° W 23:48:47 10° NNW
Cosmos 2360 Rocket 3.0 23:40:13 10° NW 23:45:16 34° WSW 23:45:58 33° WSW
Meteor 1-11 Rocket 4.0 23:42:03 10° N 23:47:44 60° ENE 23:49:31 41° SE
GP-B 3.1 23:44:36 10° N 23:48:59 65° E 23:49:14 64° ESE
Cosmos 2058 Rocket 3.7 23:48:53 43° W 23:49:25 45° WNW 23:53:37 10° N
Cosmos 468 Rocket 3.9 23:51:08 60° SSW 23:52:07 85° ESE 23:57:26 10° NNE
